Погода в Бехбехане

Иран     30°35′37″N   50°14′18″E
темп.,
°C
ветер,
м/с
пор.,
м/с
влажн.,
%
обл.,
%
осадки,
мм/ч
давл.,
гПа
погр.,
м
22 января, сб
сб2200:30+4сз22550 0.0 102430
03:30+4сз34560 0.0 102449
06:30+3сз33570 0.0 102426
09:30+6сз22430 0.0 1024189
12:30+10зсз33330 0.0 1022567
15:30+11сз44300 0.0 1020656
18:30+8зсз33420 0.0 102133
21:30+7ссз22470 0.0 102118
23 января, вс
вс2300:30+6ссз22510 0.0 102111
03:30+6с11520 0.0 102010
06:30+5ссз22510 0.0 102010
09:30+10ссз11380 0.0 1021144
12:30+13зсз21290 0.0 1019494
15:30+15зсз32240 0.0 1018671
18:30+11сз33355 0.0 101915
21:30+10св11420 0.0 101910
24 января, пн
пн2400:30+9ссв11420 0.0 101810
03:30+9ссз11410 0.0 101810
06:30+8ссв11390 0.0 101810
09:30+14с00250 0.0 102084
12:30+17зсз22200 0.0 1018495
15:30+18сз332191 0.0 1017548
18:30+15с333171 0.0 101814
21:30+14сз33355 0.0 101820
25 января, вт
вт2500:30+13ссз22392 0.0 101912
03:30+12сз33390 0.0 101814
06:30+11ссз33405 0.0 101914
09:30+15сз11320 0.0 1020111
12:30+19сз33280 0.0 1018529
15:30+19сз66261 0.0 1016589
18:30+14зсз34395 0.0 101839
21:30+13с224512 0.0 101912
26 января, ср
ср2600:30+12ссз11470 0.0 101811
03:30+11ссв11480 0.0 101710
06:30+11всв11470 0.0 101711
09:30+17в12335 0.0 1018111
12:30+20ююв33283 0.0 1017657
15:30+21ю33276 0.0 1015670
18:30+16ю224464 0.0 101611
21:30+15юв334728 0.0 101616